EST,Max TemperatureF,Mean TemperatureF,Min TemperatureF,Max Dew PointF,MeanDew PointF,Min DewpointF,Max Humidity, Mean Humidity, Min Humidity, Max Sea Level PressureIn, Mean Sea Level PressureIn, Min Sea Level PressureIn, Max VisibilityMiles, Mean VisibilityMiles, Min VisibilityMiles, Max Wind SpeedMPH, Mean Wind SpeedMPH, Max Gust SpeedMPH,PrecipitationIn, CloudCover, Events, WindDirDegrees
2012-12-1,80,75,70,65,63,61,79,72,64,30.17,30.13,30.09,10,10,9,20,11,24,0.02,3,,48
2012-12-2,80,76,71,66,64,60,84,71,58,30.20,30.15,30.11,10,10,10,17,11,23,0.00,2,,52
2012-12-3,80,76,72,63,59,53,68,58,48,30.21,30.16,30.13,10,10,9,18,11,25,0.01,1,Rain,66
2012-12-4,80,75,70,64,61,54,78,62,46,30.20,30.15,30.12,10,10,9,17,11,24,0.04,4,,59
2012-12-5,82,76,70,65,63,59,79,66,52,30.13,30.07,30.01,10,10,8,15,7,18,0.06,5,Rain,69
2012-12-6,78,74,70,67,66,64,84,74,64,30.00,29.95,29.91,10,10,10,13,6,15,0.01,2,Rain,44
2012-12-7,79,75,70,68,66,63,90,74,58,29.97,29.93,29.89,10,10,2,10,5,13,0.05,3,Rain,52
2012-12-8,81,77,72,72,69,66,90,79,67,30.02,29.97,29.93,10,9,2,13,4,22,0.09,5,Rain,97
2012-12-9,84,78,72,73,71,68,93,81,69,30.08,30.02,29.99,10,9,5,6,2,8,0.00,1,,108
2012-12-10,85,81,77,73,73,72,85,78,70,30.01,29.97,29.92,10,10,6,12,6,17,0.01,3,Rain,139
2012-12-11,86,83,79,75,73,72,85,78,70,30.05,29.99,29.94,10,9,5,12,6,18,0.00,2,,154
2012-12-12,84,80,75,72,71,69,82,74,65,30.09,30.05,30.01,10,10,10,13,7,20,0.00,1,,146
2012-12-13,82,77,72,72,68,65,84,74,63,30.11,30.07,30.04,10,10,9,16,6,22,0.00,3,,348
2012-12-14,79,75,70,66,64,60,84,71,58,30.12,30.07,30.03,10,10,10,21,12,25,0.00,5,,32
2012-12-15,81,76,71,66,64,63,79,69,58,30.09,30.04,30.01,10,10,10,16,10,21,0.00,3,,44
2012-12-16,83,77,71,65,63,61,73,64,55,30.03,29.99,29.95,10,10,10,13,5,20,0.00,0,,115
2012-12-17,85,79,73,69,67,64,84,72,59,29.99,29.96,29.91,10,10,10,9,3,15,0.00,1,,176
2012-12-18,84,78,72,71,68,64,87,76,64,30.03,29.98,29.92,10,10,10,9,4,13,0.00,2,,337
2012-12-19,80,76,72,68,66,63,84,71,58,30.09,30.04,30.01,10,10,10,13,7,15,0.00,0,,50
2012-12-20,84,80,75,68,65,62,74,64,54,30.08,30.04,29.99,10,10,10,10,6,17,0.00,1,,140
2012-12-21,77,69,61,69,57,43,84,64,44,30.19,30.09,30.01,10,10,7,22,12,31,0.00,3,,324
2012-12-22,65,60,54,40,35,28,60,45,29,30.29,30.22,30.19,10,10,10,20,10,35,0.00,0,,1
2012-12-23,72,66,59,56,48,32,73,54,35,30.23,30.17,30.12,10,10,10,14,8,20,0.00,0,,38
2012-12-24,78,71,63,60,58,56,78,63,48,30.12,30.06,30.00,10,10,10,10,6,13,0.00,1,,61
2012-12-25,80,73,65,65,61,56,87,71,54,30.03,29.97,29.93,10,10,10,13,6,20,0.00,1,,95
2012-12-26,83,77,70,71,68,63,87,76,65,30.01,29.93,29.89,10,10,6,15,7,23,0.00,3,,202
2012-12-27,70,66,61,61,54,46,78,62,45,30.08,30.03,29.99,10,10,10,14,6,22,0.00,2,,7
2012-12-28,82,75,68,70,67,57,82,75,67,30.05,30.00,29.96,10,10,10,12,8,16,0.00,3,,107
2012-12-29,83,76,69,72,69,60,87,78,69,30.13,30.03,29.94,10,10,8,18,7,25,0.00,4,,221
2012-12-30,71,65,58,58,51,44,73,64,55,30.27,30.21,30.13,10,10,10,22,14,30,0.00,2,,19
2012-12-31,75,72,69,59,56,54,61,57,53,30.27,30.21,30.16,10,10,10,16,10,22,0.00,6,,89